Year,Month,Day,Hour,Minute,Value (Times are PST for temperature in C)
2013,04,23,00,00,3.00
2013,04,23,00,01,3.00
2013,04,23,00,02,3.00
2013,04,23,00,03,3.00
2013,04,23,00,04,3.00
2013,04,23,00,05,2.90
2013,04,23,00,06,2.90
2013,04,23,00,07,2.90
2013,04,23,00,08,2.90
2013,04,23,00,09,2.90
2013,04,23,00,10,2.90
2013,04,23,00,11,2.90
2013,04,23,00,12,2.90
2013,04,23,00,17,2.90
2013,04,23,00,18,2.90
2013,04,23,00,19,2.80
2013,04,23,00,20,2.80
2013,04,23,00,21,2.80
2013,04,23,00,22,2.80
2013,04,23,00,23,2.80
2013,04,23,00,24,2.80
2013,04,23,00,25,2.80
2013,04,23,00,26,2.80
2013,04,23,00,27,2.70
2013,04,23,00,28,2.70
2013,04,23,00,29,2.80
2013,04,23,00,30,2.80
2013,04,23,00,31,2.80
2013,04,23,00,32,2.80
2013,04,23,00,33,2.80
2013,04,23,00,34,2.80
2013,04,23,00,35,2.80
2013,04,23,00,36,2.80
2013,04,23,00,37,2.80
2013,04,23,00,38,2.80
2013,04,23,00,39,2.80
2013,04,23,00,40,2.80
2013,04,23,00,41,2.80
2013,04,23,00,42,2.70
2013,04,23,00,43,2.70
2013,04,23,00,44,2.70
2013,04,23,00,45,2.70
2013,04,23,00,46,2.70
2013,04,23,00,47,2.70
2013,04,23,00,48,2.60
2013,04,23,00,49,2.60
2013,04,23,00,50,2.60
2013,04,23,00,51,2.60
2013,04,23,00,52,2.70
2013,04,23,00,53,2.60
2013,04,23,00,54,2.70
2013,04,23,00,55,2.60
2013,04,23,00,56,2.60
2013,04,23,00,57,2.60
2013,04,23,00,58,2.60
2013,04,23,00,59,2.60
2013,04,23,01,00,2.60
2013,04,23,01,01,2.60
2013,04,23,01,02,2.60
2013,04,23,01,03,2.60
2013,04,23,01,04,2.60
2013,04,23,01,05,2.60
2013,04,23,01,06,2.60
2013,04,23,01,07,2.60
2013,04,23,01,08,2.60
2013,04,23,01,09,2.60
2013,04,23,01,10,2.60
2013,04,23,01,11,2.60
2013,04,23,01,12,2.60
2013,04,23,01,13,2.60
2013,04,23,01,14,2.60
2013,04,23,01,15,2.60
2013,04,23,01,16,2.50
2013,04,23,01,17,2.60
2013,04,23,01,18,2.50
2013,04,23,01,19,2.50
2013,04,23,01,20,2.50
2013,04,23,01,21,2.50
2013,04,23,01,22,2.50
2013,04,23,01,23,2.50
2013,04,23,01,24,2.50
2013,04,23,01,25,2.50
2013,04,23,01,26,2.50
2013,04,23,01,27,2.50
2013,04,23,01,28,2.50
2013,04,23,01,29,2.50
2013,04,23,01,30,2.50
2013,04,23,01,31,2.50
2013,04,23,01,32,2.50
2013,04,23,01,33,2.50
2013,04,23,01,34,2.50
2013,04,23,01,35,2.50
2013,04,23,01,36,2.40
2013,04,23,01,37,2.40
2013,04,23,01,38,2.40
2013,04,23,01,39,2.40
2013,04,23,01,40,2.40
2013,04,23,01,41,2.40
2013,04,23,01,42,2.40
2013,04,23,01,43,2.40
2013,04,23,01,44,2.30
2013,04,23,01,45,2.30
2013,04,23,01,46,2.30
2013,04,23,01,47,2.30
2013,04,23,01,48,2.30
2013,04,23,01,49,2.30
2013,04,23,01,50,2.30
2013,04,23,01,51,2.30
2013,04,23,01,52,2.30
2013,04,23,01,53,2.30
2013,04,23,01,54,2.30
2013,04,23,01,55,2.20
2013,04,23,01,56,2.20
2013,04,23,01,57,2.20
2013,04,23,01,58,2.20
2013,04,23,01,59,2.20
2013,04,23,02,00,2.20
2013,04,23,02,01,2.20
2013,04,23,02,02,2.20
2013,04,23,02,03,2.20
2013,04,23,02,04,2.20
2013,04,23,02,05,2.10
2013,04,23,02,06,2.10
2013,04,23,02,07,2.10
2013,04,23,02,08,2.10
2013,04,23,02,09,2.20
2013,04,23,02,10,2.10
2013,04,23,02,11,2.10
2013,04,23,02,12,2.10
2013,04,23,02,13,2.10
2013,04,23,02,14,2.10
2013,04,23,02,15,2.10
2013,04,23,02,16,2.10
2013,04,23,02,17,2.10
2013,04,23,02,18,2.00
2013,04,23,02,19,2.00
2013,04,23,02,20,2.00
2013,04,23,02,21,2.00
2013,04,23,02,22,2.00
2013,04,23,02,23,2.00
2013,04,23,02,24,1.90
2013,04,23,02,25,1.90
2013,04,23,02,26,1.90
2013,04,23,02,27,1.90
2013,04,23,02,28,1.90
2013,04,23,02,29,1.90
2013,04,23,02,30,1.90
2013,04,23,02,31,1.90
2013,04,23,02,32,1.90
2013,04,23,02,33,1.90
2013,04,23,02,34,1.90
2013,04,23,02,35,1.80
2013,04,23,02,36,1.80
2013,04,23,02,37,1.80
2013,04,23,02,38,1.80
2013,04,23,02,39,1.80
2013,04,23,02,40,1.80
2013,04,23,02,41,1.80
2013,04,23,02,42,1.80
2013,04,23,02,43,1.80
2013,04,23,02,44,1.80
2013,04,23,02,45,1.80
2013,04,23,02,46,1.80
2013,04,23,02,47,1.80
2013,04,23,02,48,1.80
2013,04,23,02,49,1.80
2013,04,23,02,50,1.80
2013,04,23,02,51,1.80
2013,04,23,02,52,1.80
2013,04,23,02,53,1.80
2013,04,23,02,54,1.80
2013,04,23,02,55,1.80
2013,04,23,02,56,1.80
2013,04,23,02,57,1.70
2013,04,23,02,58,1.70
2013,04,23,02,59,1.70
2013,04,23,03,00,1.70
2013,04,23,03,01,1.70
2013,04,23,03,02,1.70
2013,04,23,03,03,1.70
2013,04,23,03,04,1.70
2013,04,23,03,05,1.70
2013,04,23,03,06,1.70
2013,04,23,03,07,1.70
2013,04,23,03,08,1.70
2013,04,23,03,09,1.70
2013,04,23,03,10,1.70
2013,04,23,03,11,1.70
2013,04,23,03,12,1.70
2013,04,23,03,13,1.70
2013,04,23,03,14,1.60
2013,04,23,03,15,1.60
2013,04,23,03,16,1.60
2013,04,23,03,17,1.60
2013,04,23,03,18,1.60
2013,04,23,03,19,1.60
2013,04,23,03,20,1.70
2013,04,23,03,21,1.70
2013,04,23,03,22,1.70
2013,04,23,03,23,1.70
2013,04,23,03,24,1.70
2013,04,23,03,25,1.70
2013,04,23,03,26,1.70
2013,04,23,03,27,1.70
2013,04,23,03,28,1.80
2013,04,23,03,29,1.80
2013,04,23,03,30,1.80
2013,04,23,03,31,1.80
2013,04,23,03,32,1.80
2013,04,23,03,33,1.80
2013,04,23,03,34,1.80
2013,04,23,03,35,1.80
2013,04,23,03,36,1.80
2013,04,23,03,37,1.80
2013,04,23,03,38,1.70
2013,04,23,03,39,1.70
2013,04,23,03,40,1.70
2013,04,23,03,41,1.70
2013,04,23,03,42,1.70
2013,04,23,03,43,1.70
2013,04,23,03,44,1.70
2013,04,23,03,45,1.70
2013,04,23,03,46,1.70
2013,04,23,03,47,1.60
2013,04,23,03,48,1.60
2013,04,23,03,49,1.60
2013,04,23,03,50,1.60
2013,04,23,03,51,1.60
2013,04,23,03,52,1.60
2013,04,23,03,53,1.60
2013,04,23,03,54,1.60
2013,04,23,03,55,1.60
2013,04,23,03,56,1.60
2013,04,23,03,57,1.60
2013,04,23,03,58,1.60
2013,04,23,03,59,1.60
2013,04,23,04,00,1.60
2013,04,23,04,01,1.60
2013,04,23,04,02,1.60
2013,04,23,04,03,1.50
2013,04,23,04,04,1.50
2013,04,23,04,05,1.50
2013,04,23,04,06,1.50
2013,04,23,04,07,1.50
2013,04,23,04,08,1.50
2013,04,23,04,09,1.40
2013,04,23,04,10,1.40
2013,04,23,04,11,1.40
2013,04,23,04,12,1.40
2013,04,23,04,13,1.40
2013,04,23,04,14,1.40
2013,04,23,04,15,1.40
2013,04,23,04,16,1.40
2013,04,23,04,17,1.40
2013,04,23,04,18,1.40
2013,04,23,04,19,1.40
2013,04,23,04,20,1.40
2013,04,23,04,21,1.40
2013,04,23,04,22,1.40
2013,04,23,04,23,1.40
2013,04,23,04,24,1.40
2013,04,23,04,25,1.40
2013,04,23,04,26,1.40
2013,04,23,04,27,1.40
2013,04,23,04,28,1.40
2013,04,23,04,29,1.40
2013,04,23,04,30,1.40
2013,04,23,04,31,1.40
2013,04,23,04,32,1.40
2013,04,23,04,33,1.40
2013,04,23,04,34,1.40
2013,04,23,04,35,1.40
2013,04,23,04,36,1.40
2013,04,23,04,37,1.30
2013,04,23,04,38,1.30
2013,04,23,04,39,1.30
2013,04,23,04,40,1.30
2013,04,23,04,41,1.30
2013,04,23,04,42,1.30
2013,04,23,04,43,1.30
2013,04,23,04,44,1.30
2013,04,23,04,45,1.30
2013,04,23,04,46,1.30
2013,04,23,04,47,1.30
2013,04,23,04,48,1.30
2013,04,23,04,49,1.30
2013,04,23,04,50,1.30
2013,04,23,04,51,1.30
2013,04,23,04,52,1.30
2013,04,23,04,53,1.30
2013,04,23,04,54,1.30
2013,04,23,04,55,1.30
2013,04,23,04,56,1.30
2013,04,23,04,57,1.30
2013,04,23,04,58,1.30
2013,04,23,04,59,1.30
2013,04,23,05,00,1.30
2013,04,23,05,01,1.30
2013,04,23,05,02,1.30
2013,04,23,05,03,1.30
2013,04,23,05,04,1.30
2013,04,23,05,05,1.30
2013,04,23,05,06,1.30
2013,04,23,05,07,1.30
2013,04,23,05,08,1.30
2013,04,23,05,09,1.30
2013,04,23,05,10,1.30
2013,04,23,05,11,1.30
2013,04,23,05,12,1.30
2013,04,23,05,13,1.30
2013,04,23,05,14,1.30
2013,04,23,05,15,1.30
2013,04,23,05,16,1.20
2013,04,23,05,17,1.20
2013,04,23,05,18,1.20
2013,04,23,05,19,1.20
2013,04,23,05,20,1.20
2013,04,23,05,21,1.20
2013,04,23,05,22,1.20
2013,04,23,05,23,1.20
2013,04,23,05,24,1.20
2013,04,23,05,25,1.20
2013,04,23,05,26,1.20
2013,04,23,05,27,1.20
2013,04,23,05,28,1.20
2013,04,23,05,29,1.20
2013,04,23,05,30,1.20
2013,04,23,05,31,1.20
2013,04,23,05,32,1.20
2013,04,23,05,33,1.20
2013,04,23,05,34,1.20
2013,04,23,05,35,1.30
2013,04,23,05,36,1.30
2013,04,23,05,37,1.30
2013,04,23,05,38,1.30
2013,04,23,05,39,1.40
2013,04,23,05,40,1.40
2013,04,23,05,41,1.40
2013,04,23,05,42,1.40
2013,04,23,05,43,1.30
2013,04,23,05,44,1.30
2013,04,23,05,45,1.30
2013,04,23,05,46,1.30
2013,04,23,05,47,1.30
2013,04,23,05,48,1.30
2013,04,23,05,49,1.30
2013,04,23,05,50,1.20
2013,04,23,05,51,1.20
2013,04,23,05,52,1.20
2013,04,23,05,53,1.30
2013,04,23,05,54,1.30
2013,04,23,05,55,1.30
2013,04,23,05,56,1.30
2013,04,23,05,57,1.30
2013,04,23,05,58,1.30
2013,04,23,05,59,1.30
2013,04,23,06,00,1.30
2013,04,23,06,01,1.30
2013,04,23,06,02,1.30
2013,04,23,06,03,1.30
2013,04,23,06,04,1.30
2013,04,23,06,05,1.30
2013,04,23,06,06,1.30
2013,04,23,06,07,1.30
2013,04,23,06,08,1.30
2013,04,23,06,09,1.20
2013,04,23,06,10,1.20
2013,04,23,06,11,1.20
2013,04,23,06,12,1.20
2013,04,23,06,13,1.20
2013,04,23,06,14,1.20
2013,04,23,06,15,1.20
2013,04,23,06,16,1.20
2013,04,23,06,17,1.20
2013,04,23,06,18,1.20
2013,04,23,06,19,1.20
2013,04,23,06,20,1.20
2013,04,23,06,21,1.20
2013,04,23,06,22,1.20
2013,04,23,06,23,1.20
2013,04,23,06,24,1.20
2013,04,23,06,25,1.20
2013,04,23,06,26,1.20
2013,04,23,06,27,1.20
2013,04,23,06,28,1.20
2013,04,23,06,29,1.20
2013,04,23,06,30,1.20
2013,04,23,06,31,1.20
2013,04,23,06,32,1.20
2013,04,23,06,33,1.20
2013,04,23,06,34,1.20
2013,04,23,06,35,1.20
2013,04,23,06,36,1.20
2013,04,23,06,37,1.30
2013,04,23,06,38,1.30
2013,04,23,06,39,1.30
2013,04,23,06,40,1.30
2013,04,23,06,41,1.30
2013,04,23,06,42,1.30
2013,04,23,06,43,1.30
2013,04,23,06,44,1.30
2013,04,23,06,45,1.30
2013,04,23,06,46,1.30
2013,04,23,06,47,1.30
2013,04,23,06,48,1.30
2013,04,23,06,49,1.30
2013,04,23,06,50,1.30
2013,04,23,06,51,1.30
2013,04,23,06,52,1.30
2013,04,23,06,53,1.40
2013,04,23,06,54,1.40
2013,04,23,06,55,1.40
2013,04,23,06,56,1.40
2013,04,23,06,57,1.40
2013,04,23,06,58,1.40
2013,04,23,06,59,1.40
2013,04,23,07,00,1.40
2013,04,23,07,01,1.40
2013,04,23,07,02,1.40
2013,04,23,07,03,1.40
2013,04,23,07,04,1.40
2013,04,23,07,05,1.40
2013,04,23,07,06,1.40
2013,04,23,07,07,1.40
2013,04,23,07,08,1.40
2013,04,23,07,09,1.40
2013,04,23,07,10,1.50
2013,04,23,07,11,1.50
2013,04,23,07,12,1.50
2013,04,23,07,13,1.50
2013,04,23,07,14,1.50
2013,04,23,07,15,1.60
2013,04,23,07,16,1.60
2013,04,23,07,17,1.60
2013,04,23,07,18,1.60
2013,04,23,07,19,1.60
2013,04,23,07,20,1.60
2013,04,23,07,21,1.60
2013,04,23,07,22,1.60
2013,04,23,07,23,1.60
2013,04,23,07,24,1.60
2013,04,23,07,25,1.60
2013,04,23,07,26,1.70
2013,04,23,07,27,1.70
2013,04,23,07,28,1.70
2013,04,23,07,29,1.70
2013,04,23,07,30,1.70
2013,04,23,07,31,1.70
2013,04,23,07,32,1.70
2013,04,23,07,33,1.80
2013,04,23,07,34,1.80
2013,04,23,07,35,1.80
2013,04,23,07,36,1.80
2013,04,23,07,37,1.80
2013,04,23,07,38,1.80
2013,04,23,07,39,1.80
2013,04,23,07,40,1.90
2013,04,23,07,41,1.90
2013,04,23,07,42,1.90
2013,04,23,07,43,1.90
2013,04,23,07,44,2.00
2013,04,23,07,45,2.00
2013,04,23,07,46,2.00
2013,04,23,07,47,2.00
2013,04,23,07,48,2.00
2013,04,23,07,49,2.10
2013,04,23,07,50,2.10
2013,04,23,07,51,2.10
2013,04,23,07,52,2.10
2013,04,23,07,53,2.10
2013,04,23,07,54,2.10
2013,04,23,07,55,2.20
2013,04,23,07,56,2.20
2013,04,23,07,57,2.20
2013,04,23,07,58,2.20
2013,04,23,07,59,2.20
2013,04,23,08,00,2.20
2013,04,23,08,01,2.30
2013,04,23,08,02,2.30
2013,04,23,08,03,2.30
2013,04,23,08,04,2.30
2013,04,23,08,05,2.30
2013,04,23,08,06,2.30
2013,04,23,08,07,2.40
2013,04,23,08,08,2.40
2013,04,23,08,09,2.40
2013,04,23,08,10,2.40
2013,04,23,08,11,2.40
2013,04,23,08,12,2.50
2013,04,23,08,13,2.50
2013,04,23,08,14,2.50
2013,04,23,08,15,2.60
2013,04,23,08,16,2.60
2013,04,23,08,17,2.60
2013,04,23,08,18,2.60
2013,04,23,08,19,2.70
2013,04,23,08,20,2.70
2013,04,23,08,21,2.70
2013,04,23,08,22,2.70
2013,04,23,08,23,2.80
2013,04,23,08,24,2.80
2013,04,23,08,25,2.90
2013,04,23,08,26,2.90
2013,04,23,08,27,2.90
2013,04,23,08,28,3.00
2013,04,23,08,29,3.00
2013,04,23,08,30,3.10
2013,04,23,08,31,3.10
2013,04,23,08,32,3.20
2013,04,23,08,33,3.20
2013,04,23,08,34,3.30
2013,04,23,08,35,3.30
2013,04,23,08,36,3.40
2013,04,23,08,37,3.40
2013,04,23,08,38,3.50
2013,04,23,08,39,3.50
2013,04,23,08,40,3.60
2013,04,23,08,41,3.70
2013,04,23,08,42,3.70
2013,04,23,08,43,3.80
2013,04,23,08,44,3.80
2013,04,23,08,45,3.90
2013,04,23,08,46,3.90
2013,04,23,08,47,4.00
2013,04,23,08,48,4.00
2013,04,23,08,49,4.10
2013,04,23,08,50,4.10
2013,04,23,08,51,4.20
2013,04,23,08,52,4.30
2013,04,23,08,53,4.30
2013,04,23,08,54,4.40
2013,04,23,08,55,4.50
2013,04,23,08,56,4.50
2013,04,23,08,57,4.60
2013,04,23,08,58,4.60
2013,04,23,08,59,4.70
2013,04,23,09,00,4.80
2013,04,23,09,01,4.80
2013,04,23,09,02,4.90
2013,04,23,09,03,4.90
2013,04,23,09,04,4.90
2013,04,23,09,05,4.90
2013,04,23,09,06,5.00
2013,04,23,09,07,5.00
2013,04,23,09,08,5.10
2013,04,23,09,09,5.10
2013,04,23,09,10,5.10
2013,04,23,09,11,5.20
2013,04,23,09,12,5.20
2013,04,23,09,13,5.30
2013,04,23,09,14,5.30
2013,04,23,09,15,5.40
2013,04,23,09,16,5.40
2013,04,23,09,17,5.50
2013,04,23,09,18,5.50
2013,04,23,09,19,5.60
2013,04,23,09,20,5.70
2013,04,23,09,21,5.80
2013,04,23,09,22,5.90
2013,04,23,09,23,6.00
2013,04,23,09,24,6.00
2013,04,23,09,25,6.10
2013,04,23,09,26,6.10
2013,04,23,09,27,6.20
2013,04,23,09,28,6.30
2013,04,23,09,29,6.30
2013,04,23,09,30,6.30
2013,04,23,09,31,6.30
2013,04,23,09,32,6.40
2013,04,23,09,33,6.40
2013,04,23,09,34,6.40
2013,04,23,09,35,6.40
2013,04,23,09,36,6.40
2013,04,23,09,37,6.40
2013,04,23,09,38,6.40
2013,04,23,09,39,6.50
2013,04,23,09,40,6.50
2013,04,23,09,41,6.60
2013,04,23,09,42,6.60
2013,04,23,09,43,6.70
2013,04,23,09,44,6.70
2013,04,23,09,45,6.80
2013,04,23,09,46,6.80
2013,04,23,09,47,6.90
2013,04,23,09,48,7.00
2013,04,23,09,49,7.10
2013,04,23,09,50,7.20
2013,04,23,09,51,7.40
2013,04,23,09,52,7.50
2013,04,23,09,53,7.60
2013,04,23,09,54,7.70
2013,04,23,09,55,7.80
2013,04,23,09,56,7.90
2013,04,23,09,57,7.90
2013,04,23,09,58,8.00
2013,04,23,09,59,8.10
2013,04,23,10,00,8.10
2013,04,23,10,01,8.10
2013,04,23,10,02,8.10
2013,04,23,10,03,8.20
2013,04,23,10,04,8.20
2013,04,23,10,05,8.20
2013,04,23,10,06,8.30
2013,04,23,10,07,8.30
2013,04,23,10,08,8.40
2013,04,23,10,09,8.40
2013,04,23,10,10,8.40
2013,04,23,10,11,8.40
2013,04,23,10,12,8.50
2013,04,23,10,13,8.50
2013,04,23,10,14,8.50
2013,04,23,10,15,8.50
2013,04,23,10,16,8.50
2013,04,23,10,17,8.50
2013,04,23,10,18,8.60
2013,04,23,10,19,8.60
2013,04,23,10,20,8.60
2013,04,23,10,21,8.60
2013,04,23,10,22,8.70
2013,04,23,10,23,8.70
2013,04,23,10,24,8.70
2013,04,23,10,25,8.70
2013,04,23,10,26,8.70
2013,04,23,10,27,8.80
2013,04,23,10,28,8.80
2013,04,23,10,29,8.80
2013,04,23,10,30,8.80
2013,04,23,10,31,8.80
2013,04,23,10,32,8.80
2013,04,23,10,33,8.80
2013,04,23,10,34,8.80
2013,04,23,10,35,8.80
2013,04,23,10,36,8.80
2013,04,23,10,37,8.90
2013,04,23,10,38,8.90
2013,04,23,10,39,8.90
2013,04,23,10,40,8.90
2013,04,23,10,41,8.90
2013,04,23,10,42,8.80
2013,04,23,10,43,8.80
2013,04,23,10,44,8.90
2013,04,23,10,45,8.90
2013,04,23,10,46,8.90
2013,04,23,10,47,8.90
2013,04,23,10,48,9.00
2013,04,23,10,49,9.00
2013,04,23,10,50,9.10
2013,04,23,10,51,9.10
2013,04,23,10,52,9.20
2013,04,23,10,53,9.20
2013,04,23,10,54,9.20
2013,04,23,10,55,9.20
2013,04,23,10,56,9.30
2013,04,23,10,57,9.30
2013,04,23,10,58,9.30
2013,04,23,10,59,9.30
2013,04,23,11,00,9.30
2013,04,23,11,01,9.30
2013,04,23,11,02,9.30
2013,04,23,11,03,9.20
2013,04,23,11,04,9.20
2013,04,23,11,05,9.10
2013,04,23,11,06,9.10
2013,04,23,11,07,9.10
2013,04,23,11,08,9.10
2013,04,23,11,09,9.10
2013,04,23,11,10,9.10
2013,04,23,11,11,9.10
2013,04,23,11,12,9.10
2013,04,23,11,13,9.10
2013,04,23,11,14,9.20
2013,04,23,11,15,9.20
2013,04,23,11,16,9.20
2013,04,23,11,17,9.20
2013,04,23,11,18,9.20
2013,04,23,11,19,9.20
2013,04,23,11,20,9.20
2013,04,23,11,21,9.20
2013,04,23,11,22,9.20
2013,04,23,11,23,9.20
2013,04,23,11,24,9.20
2013,04,23,11,25,9.20
2013,04,23,11,26,9.20
2013,04,23,11,27,9.20
2013,04,23,11,28,9.20
2013,04,23,11,29,9.20
2013,04,23,11,30,9.20
2013,04,23,11,31,9.30
2013,04,23,11,32,9.30
2013,04,23,11,33,9.30
2013,04,23,11,34,9.30
2013,04,23,11,35,9.40
2013,04,23,11,36,9.50
2013,04,23,11,37,9.60
2013,04,23,11,38,9.70
2013,04,23,11,39,9.70
2013,04,23,11,40,9.70
2013,04,23,11,41,9.80
2013,04,23,11,42,9.90
2013,04,23,11,43,9.90
2013,04,23,11,44,10.00
2013,04,23,11,45,10.10
2013,04,23,11,46,10.20
2013,04,23,11,47,10.20
2013,04,23,11,48,10.30
2013,04,23,11,49,10.30
2013,04,23,11,50,10.30
2013,04,23,11,51,10.30
2013,04,23,11,52,10.30
2013,04,23,11,53,10.20
2013,04,23,11,54,10.20
2013,04,23,11,55,10.20
2013,04,23,11,56,10.10
2013,04,23,11,57,10.10
2013,04,23,11,58,10.10
2013,04,23,11,59,10.10
2013,04,23,12,00,10.00
2013,04,23,12,01,10.00
2013,04,23,12,02,10.00
2013,04,23,12,03,10.00
2013,04,23,12,04,10.00
2013,04,23,12,05,10.00
2013,04,23,12,06,10.10
2013,04,23,12,07,10.10
2013,04,23,12,08,10.10
2013,04,23,12,09,10.30
2013,04,23,12,10,10.40
2013,04,23,12,11,10.50
2013,04,23,12,12,10.60
2013,04,23,12,13,10.70
2013,04,23,12,14,10.80
2013,04,23,12,15,10.90
2013,04,23,12,16,10.90
2013,04,23,12,17,10.90
2013,04,23,12,18,11.00
2013,04,23,12,19,11.00
2013,04,23,12,20,11.00
2013,04,23,12,21,11.10
2013,04,23,12,22,11.10
2013,04,23,12,23,11.10
2013,04,23,12,24,11.10
2013,04,23,12,25,11.10
2013,04,23,12,26,11.10
2013,04,23,12,27,11.20
2013,04,23,12,28,11.20
2013,04,23,12,29,11.20
2013,04,23,12,30,11.20
2013,04,23,12,31,11.30
2013,04,23,12,32,11.30
2013,04,23,12,33,11.30
2013,04,23,12,34,11.40
2013,04,23,12,35,11.40
2013,04,23,12,36,11.50
2013,04,23,12,37,11.50
2013,04,23,12,38,11.60
2013,04,23,12,39,11.60
2013,04,23,12,40,11.60
2013,04,23,12,41,11.60
2013,04,23,12,42,11.60
2013,04,23,12,43,11.60
2013,04,23,12,44,11.60
2013,04,23,12,45,11.50
2013,04,23,12,46,11.60
2013,04,23,12,47,11.60
2013,04,23,12,48,11.70
2013,04,23,12,49,11.70
2013,04,23,12,50,11.80
2013,04,23,12,51,11.80
2013,04,23,12,52,11.90
2013,04,23,12,53,12.00
2013,04,23,12,54,12.00
2013,04,23,12,55,12.10
2013,04,23,12,56,12.20
2013,04,23,12,57,12.20
2013,04,23,12,58,12.20
2013,04,23,12,59,12.20
2013,04,23,13,00,12.20
2013,04,23,13,01,12.30
2013,04,23,13,02,12.40
2013,04,23,13,03,12.40
2013,04,23,13,04,12.40
2013,04,23,13,05,12.30
2013,04,23,13,06,12.20
2013,04,23,13,07,12.20
2013,04,23,13,08,12.30
2013,04,23,13,09,12.40
2013,04,23,13,10,12.60
2013,04,23,13,11,12.80
2013,04,23,13,12,13.00
2013,04,23,13,13,13.10
2013,04,23,13,14,13.10
2013,04,23,13,15,13.20
2013,04,23,13,16,13.20
2013,04,23,13,17,13.20
2013,04,23,13,18,13.20
2013,04,23,13,19,13.30
2013,04,23,13,20,13.20
2013,04,23,13,21,13.20
2013,04,23,13,22,13.20
2013,04,23,13,23,13.20
2013,04,23,13,24,13.20
2013,04,23,13,25,13.20
2013,04,23,13,26,13.20
2013,04,23,13,27,13.20
2013,04,23,13,28,13.20
2013,04,23,13,29,13.10
2013,04,23,13,30,13.10
2013,04,23,13,31,13.20
2013,04,23,13,32,13.20
2013,04,23,13,33,13.20
2013,04,23,13,34,13.20
2013,04,23,13,35,13.10
2013,04,23,13,36,13.10
2013,04,23,13,37,13.10
2013,04,23,13,38,13.00
2013,04,23,13,39,12.90
2013,04,23,13,40,12.90
2013,04,23,13,41,12.90
2013,04,23,13,42,12.90
2013,04,23,13,43,12.90
2013,04,23,13,44,13.00
2013,04,23,13,45,13.10
2013,04,23,13,46,13.00
2013,04,23,13,47,13.00
2013,04,23,13,48,12.90
2013,04,23,13,49,13.00
2013,04,23,13,50,12.90
2013,04,23,13,51,13.00
2013,04,23,13,52,13.10
2013,04,23,13,53,13.10
2013,04,23,13,54,13.20
2013,04,23,13,55,13.20
2013,04,23,13,56,13.30
2013,04,23,13,57,13.30
2013,04,23,13,58,13.30
2013,04,23,13,59,13.30
2013,04,23,14,00,13.30
2013,04,23,14,01,13.30
2013,04,23,14,02,13.30
2013,04,23,14,03,13.30
2013,04,23,14,04,13.30
2013,04,23,14,05,13.20
2013,04,23,14,06,13.20
2013,04,23,14,07,13.20
2013,04,23,14,08,13.20
2013,04,23,14,09,13.20
2013,04,23,14,10,13.10
2013,04,23,14,11,13.10
2013,04,23,14,12,13.10
2013,04,23,14,13,13.20
2013,04,23,14,14,13.20
2013,04,23,14,15,13.30
2013,04,23,14,16,13.30
2013,04,23,14,17,13.40
2013,04,23,14,18,13.40
2013,04,23,14,19,13.30
2013,04,23,14,20,13.30
2013,04,23,14,21,13.40
2013,04,23,14,22,13.40
2013,04,23,14,23,13.40
2013,04,23,14,24,13.40
2013,04,23,14,25,13.40
2013,04,23,14,26,13.30
2013,04,23,14,27,13.30
2013,04,23,14,28,13.40
2013,04,23,14,29,13.40
2013,04,23,14,30,13.50
2013,04,23,14,31,13.50
2013,04,23,14,32,13.50
2013,04,23,14,33,13.40
2013,04,23,14,34,13.30
2013,04,23,14,35,13.30
2013,04,23,14,36,13.40
2013,04,23,14,37,13.40
2013,04,23,14,38,13.40
2013,04,23,14,39,13.50
2013,04,23,14,40,13.50
2013,04,23,14,41,13.40
2013,04,23,14,42,13.30
2013,04,23,14,43,13.30
2013,04,23,14,44,13.40
2013,04,23,14,45,13.30
2013,04,23,14,46,13.20
2013,04,23,14,47,13.00
2013,04,23,14,48,12.80
2013,04,23,14,49,12.70
2013,04,23,14,50,12.70
2013,04,23,14,51,12.80
2013,04,23,14,52,12.80
2013,04,23,14,53,12.90
2013,04,23,14,54,13.00
2013,04,23,14,55,13.00
2013,04,23,14,56,13.10
2013,04,23,14,57,13.10
2013,04,23,14,58,13.10
2013,04,23,14,59,13.10
2013,04,23,15,00,13.00
2013,04,23,15,01,12.90
2013,04,23,15,02,12.80
2013,04,23,15,03,12.80
2013,04,23,15,04,12.80
2013,04,23,15,05,12.80
2013,04,23,15,06,12.80
2013,04,23,15,07,12.70
2013,04,23,15,08,12.70
2013,04,23,15,09,12.60
2013,04,23,15,10,12.50
2013,04,23,15,11,12.40
2013,04,23,15,12,12.50
2013,04,23,15,13,12.60
2013,04,23,15,14,12.70
2013,04,23,15,15,12.80
2013,04,23,15,16,12.90
2013,04,23,15,17,12.90
2013,04,23,15,18,12.90
2013,04,23,15,19,12.80
2013,04,23,15,20,12.70
2013,04,23,15,21,12.70
2013,04,23,15,22,12.70
2013,04,23,15,23,12.70
2013,04,23,15,24,12.80
2013,04,23,15,25,12.90
2013,04,23,15,26,13.10
2013,04,23,15,27,13.20
2013,04,23,15,28,13.30
2013,04,23,15,29,13.40
2013,04,23,15,30,13.30
2013,04,23,15,31,13.40
2013,04,23,15,32,13.50
2013,04,23,15,33,13.60
2013,04,23,15,34,13.60
2013,04,23,15,35,13.70
2013,04,23,15,36,13.70
2013,04,23,15,37,13.70
2013,04,23,15,38,13.70
2013,04,23,15,39,13.80
2013,04,23,15,40,13.90
2013,04,23,15,41,14.00
2013,04,23,15,42,14.10
2013,04,23,15,43,14.20
2013,04,23,15,44,14.30
2013,04,23,15,45,14.40
2013,04,23,15,46,14.40
2013,04,23,15,47,14.40
2013,04,23,15,48,14.40
2013,04,23,15,49,14.30
2013,04,23,15,50,14.20
2013,04,23,15,51,14.20
2013,04,23,15,52,14.20
2013,04,23,15,53,14.30
2013,04,23,15,54,14.40
2013,04,23,15,55,14.50
2013,04,23,15,56,14.50
2013,04,23,15,57,14.50
2013,04,23,15,58,14.60
2013,04,23,15,59,14.70
2013,04,23,16,00,14.70
2013,04,23,16,01,14.70
2013,04,23,16,02,14.70
2013,04,23,16,03,14.70
2013,04,23,16,04,14.70
2013,04,23,16,05,14.60
2013,04,23,16,06,14.60
2013,04,23,16,07,14.60
2013,04,23,16,08,14.60
2013,04,23,16,09,14.50
2013,04,23,16,10,14.40
2013,04,23,16,11,14.40
2013,04,23,16,12,14.30
2013,04,23,16,13,14.30
2013,04,23,16,14,14.30
2013,04,23,16,15,14.10
2013,04,23,16,16,14.10
2013,04,23,16,17,14.10
2013,04,23,16,18,14.10
2013,04,23,16,19,14.10
2013,04,23,16,20,14.10
2013,04,23,16,21,14.10
2013,04,23,16,22,14.20
2013,04,23,16,23,14.20
2013,04,23,16,24,14.20
2013,04,23,16,25,14.30
2013,04,23,16,26,14.30
2013,04,23,16,27,14.30
2013,04,23,16,28,14.30
2013,04,23,16,29,14.30
2013,04,23,16,30,14.20
2013,04,23,16,31,14.20
2013,04,23,16,32,14.20
2013,04,23,16,33,14.20
2013,04,23,16,34,14.20
2013,04,23,16,35,14.30
2013,04,23,16,36,14.30
2013,04,23,16,37,14.40
2013,04,23,16,38,14.50
2013,04,23,16,39,14.50
2013,04,23,16,40,14.60
2013,04,23,16,41,14.60
2013,04,23,16,42,14.60
2013,04,23,16,43,14.60
2013,04,23,16,44,14.70
2013,04,23,16,45,14.70
2013,04,23,16,46,14.70
2013,04,23,16,47,14.80
2013,04,23,16,48,14.80
2013,04,23,16,49,14.80
2013,04,23,16,50,14.80
2013,04,23,16,51,14.80
2013,04,23,16,52,14.70
2013,04,23,16,53,14.70
2013,04,23,16,54,14.70
2013,04,23,16,55,14.70
2013,04,23,16,56,14.70
2013,04,23,16,57,14.70
2013,04,23,16,58,14.70
2013,04,23,16,59,14.60
2013,04,23,17,00,14.60
2013,04,23,17,01,14.60
2013,04,23,17,02,14.60
2013,04,23,17,03,14.50
2013,04,23,17,04,14.50
2013,04,23,17,05,14.50
2013,04,23,17,06,14.40
2013,04,23,17,07,14.50
2013,04,23,17,08,14.50
2013,04,23,17,09,14.60
2013,04,23,17,10,14.60
2013,04,23,17,11,14.70
2013,04,23,17,12,14.70
2013,04,23,17,13,14.70
2013,04,23,17,14,14.70
2013,04,23,17,15,14.70
2013,04,23,17,16,14.70
2013,04,23,17,17,14.70
2013,04,23,17,18,14.70
2013,04,23,17,19,14.70
2013,04,23,17,20,14.70
2013,04,23,17,21,14.80
2013,04,23,17,22,14.80
2013,04,23,17,23,14.80
2013,04,23,17,24,14.90
2013,04,23,17,25,14.90
2013,04,23,17,26,14.90
2013,04,23,17,27,14.90
2013,04,23,17,28,14.80
2013,04,23,17,29,14.80
2013,04,23,17,30,14.70
2013,04,23,17,31,14.60
2013,04,23,17,32,14.60
2013,04,23,17,33,14.60
2013,04,23,17,34,14.60
2013,04,23,17,35,14.60
2013,04,23,17,36,14.60
2013,04,23,17,37,14.70
2013,04,23,17,38,14.70
2013,04,23,17,39,14.70
2013,04,23,17,40,14.80
2013,04,23,17,41,14.80
2013,04,23,17,42,14.90
2013,04,23,17,43,14.90
2013,04,23,17,44,14.90
2013,04,23,17,45,14.90
2013,04,23,17,46,14.90
2013,04,23,17,47,14.90
2013,04,23,17,48,14.90
2013,04,23,17,49,14.90
2013,04,23,17,50,14.90
2013,04,23,17,51,14.90
2013,04,23,17,52,14.80
2013,04,23,17,53,14.80